Presure
158 154 118 161 173 178 167 104 146 107 117 110 109 108 111 122 129 106 93 93 91 94 95 96 96 97 98 97 95 95 94 97 97
159 157 153 152 171 176 174 174 149 158 154 112 112 108 108 102 102 100 101 99 95 96 96 97 96 96 95 96 97 98 101 98 101
163 155 118 152 167 183 185 137 180 170 164 148 118 113 114 113 102 96 97 114 103 97 96 96 98 96 95 96 100 101 103 100 100
84 142 104 133 90 92 111 167 169 192 183 130 112 130 132 165 160 109 108 109 109 101 96 97 96 107 109 107 110 108 98 103 107
153 156 160 147 138 144 148 156 159 165 93 186 164 142 177 176 110 133 156 154 155 159 157 159 155 111 112 107 110 112 172 167 176
153 89 84 122 159 146 154 148 155 169 120 179 191 126 188 150 148 170 170 170 182 179 171 167 163 162 162 163 160 163 161 161 170
153 171 156 157 158 155 120 138 142 155 165 174 168 180 181 187 185 184 187 178 163 168 175 178 177 163 161 164 162 161 167 168 156
151 157 161 154 121 126 157 133 135 133 137 167 172 170 172 182 178 164 187 189 183 181 187 189 176 178 181 183 184 180 152 151 151
166 146 163 157 153 160 130 159 134 131 136 135 126 121 129 136 179 189 185 181 181 186 185 178 182 197 184 180 176 174 173 175 174
176 170 154 156 149 157 167 164 159 177 142 131 130 129 132 147 172 152 95 193 179 98 220 213 199 191 183 190 187 186 187 182 185
168 164 167 167 166 164 164 163 161 149 138 129 130 134 129 141 168 173 170 182 152 189 191 198 206 206 203 210 206 203 196 192 200
162 166 165 166 165 163 152 164 165 167 162 159 162 124 126 159 126 126 166 162 160 191 177 184 205 205 203 180 185 185 201 193 213
90 83 88 90 149 90 168 90 159 163 162 160 142 165 155 153 154 149 165 164 170 181 179 185 168 210 210 138 204 195 184 197 199
95 120 90 133 89 85 94 124 97 157 162 159 162 176 178 167 163 163 138 180 166 157 179 143 196 202 202 200 206 208 208 212 194
160 155 153 159 161 112 109 114 159 105 132 150 157 160 155 154 141 155 178 175 103 173 172 189 200 182 207 186 201 207 205 204 172
165 166 161 159 152 112 160 163 160 162 170 163 159 169 169 170 173 177 176 173 179 172 175 188 196 175 196 177 199 204 204 227 144
172 168 165 161 161 157 157 158 158 158 156 162 161 165 167 168 168 163 171 168 172 174 154 183 183 156 185 208 151 205 156 200 212
174 173 170 167 161 157 158 155 152 158 161 159 163 159 164 166 150 168 166 141 178 181 178 176 139 161 191 171 190 198 144 206 158
171 172 174 167 166 163 161 157 159 165 168 159 170 152 156 170 157 167 171 163 169 186 164 182 188 180 197 195 194 153 157 188 214
170 170 173 172 170 164 166 155 169 158 155 165 163 150 168 135 170 176 165 165 142 172 170 192 180 191 194 124 138 196 191 157 126
Wind_Speed
36 34 30 29 28 29 30 20 36 23 27 24 24 23 23 24 27 24 23 23 23 24 26 26 26 26 27 27 28 29 29 29 28
40 37 35 32 31 30 30 31 37 34 33 27 27 27 28 27 27 27 28 29 28 29 30 30 30 29 30 31 32 34 34 31 33
42 40 31 36 33 29 28 27 30 33 35 37 33 29 31 31 31 29 31 34 32 33 31 32 34 34 34 36 37 37 36 35 34
16 39 24 39 19 19 24 33 31 29 34 32 30 37 38 39 38 36 37 38 39 38 34 36 38 41 41 42 41 41 35 40 43
47 47 44 44 41 41 41 40 37 37 23 32 37 35 42 42 35 40 44 45 45 45 45 46 47 44 44 42 44 45 52 52 53
51 27 23 42 43 42 45 42 43 38 31 36 34 32 38 41 43 47 46 46 45 48 49 48 50 50 50 52 52 53 53 53 55
54 48 51 50 49 48 39 44 44 46 42 41 43 39 38 37 40 43 43 46 50 50 50 50 52 53 54 55 54 55 59 58 56
56 53 52 54 46 46 50 47 45 44 44 44 44 46 45 42 44 49 42 43 46 48 47 48 53 54 54 55 55 56 57 58 57
56 55 55 56 56 54 49 53 49 47 48 48 48 49 50 49 46 43 45 47 48 48 49 52 53 51 54 56 58 59 61 62 63
54 54 60 59 58 57 54 55 53 49 51 51 51 51 52 52 52 43 41 45 47 42 39 45 50 53 55 56 58 58 60 62 63
57 57 57 57 57 57 57 57 57 54 54 54 53 53 52 52 56 56 53 48 49 47 48 48 50 50 52 50 51 53 57 61 59
60 59 59 57 58 58 58 58 58 56 57 57 58 53 56 58 56 57 55 54 56 54 53 51 53 52 53 55 58 59 54 60 50
43 37 40 42 57 41 60 42 61 59 60 60 56 64 61 61 61 62 61 58 57 59 59 60 55 62 59 58 55 58 61 57 58
53 57 48 58 44 40 49 57 53 65 64 65 64 62 62 68 67 67 57 64 61 57 63 57 68 62 62 60 58 58 59 57 58
72 71 70 70 69 58 58 60 68 51 58 64 69 68 68 68 63 61 73 66 55 65 64 72 73 61 69 60 61 60 60 57 61
75 75 74 74 70 54 70 70 71 72 71 73 72 71 75 74 76 77 75 72 76 70 68 78 79 60 77 62 66 64 61 56 71
81 80 78 77 76 75 75 75 75 76 76 75 75 78 78 77 77 72 76 73 75 77 61 82 77 66 72 75 72 69 72 57 55
83 82 81 80 80 79 78 78 79 79 80 80 80 78 80 79 71 79 76 67 81 82 84 82 69 72 81 76 73 73 61 64 64
86 86 86 84 84 82 84 83 85 84 86 81 85 75 77 84 78 82 83 74 79 88 79 88 90 83 82 84 79 65 71 68 60
91 91 92 90 89 87 88 87 88 84 83 87 87 77 87 71 90 90 80 79 70 85 82 89 89 92 89 61 62 82 75 78 66
Wind_Direction
245 245 246 251 254 254 247 252 247 254 252 255 256 258 260 259 259 257 259 262 269 270 270 271 273 276 278 279 279 282 283 289 292
246 245 246 249 256 255 253 253 245 245 247 254 253 254 254 260 261 264 265 266 271 271 273 275 277 279 280 280 281 281 283 285 288
244 248 247 248 253 259 259 256 262 258 256 258 256 254 255 253 259 267 268 261 266 274 278 281 280 280 279 280 281 282 286 287 288
260 248 256 246 264 265 258 257 260 266 264 258 259 261 262 262 265 259 261 263 263 270 281 280 279 276 276 277 280 284 286 288 289
244 245 247 248 247 248 251 255 256 260 272 266 262 261 264 265 262 263 263 265 267 270 270 273 272 275 278 284 284 284 283 284 283
243 262 271 249 249 253 254 253 257 263 271 267 270 271 270 268 269 270 270 272 275 276 275 277 279 279 281 282 282 284 285 287 287
242 243 245 247 249 251 256 253 255 258 262 269 266 273 273 278 276 276 276 275 276 276 276 277 278 281 281 282 286 287 287 286 286
244 245 245 247 252 252 254 254 255 255 257 267 272 270 271 277 273 273 281 282 278 279 280 280 277 278 280 281 282 283 282 283 284
241 246 244 249 251 253 255 257 257 257 259 259 259 262 262 267 281 288 284 280 281 282 282 280 279 283 281 281 280 281 283 282 283
242 243 248 250 253 255 258 259 260 271 261 259 260 262 266 272 279 283 272 292 282 275 297 291 288 286 283 284 284 284 284 283 285
242 243 245 249 252 255 257 259 261 262 262 262 263 266 268 272 278 280 278 290 276 292 295 302 298 294 292 295 295 293 290 289 293
243 245 246 249 252 255 258 259 262 265 266 267 270 266 269 274 272 274 278 275 280 298 286 286 306 298 294 288 288 288 294 293 304
258 255 261 262 255 263 259 263 262 264 265 267 268 271 271 273 270 276 278 278 281 293 290 295 289 303 303 288 297 290 288 296 299
255 250 259 253 260 256 263 261 266 263 265 266 269 277 282 274 273 274 277 288 280 283 291 285 302 300 300 301 305 304 304 307 297
241 244 247 248 250 257 259 261 261 265 267 268 267 269 271 272 274 275 287 287 280 286 286 300 303 292 301 298 302 305 304 304 294
241 243 245 248 250 257 255 258 260 264 269 264 267 275 274 276 281 283 285 287 293 288 292 299 299 287 300 288 302 303 304 304 293
244 243 244 247 249 251 253 256 258 260 262 266 267 269 273 274 276 278 284 283 289 293 276 298 295 278 298 301 292 302 290 301 302
246 247 247 248 249 251 254 256 257 260 262 263 266 268 271 275 273 279 279 272 289 292 293 292 286 295 298 290 299 298 286 301 291
246 247 249 248 250 251 253 255 257 260 262 264 268 268 270 275 273 277 281 281 284 289 286 292 293 293 293 295 297 289 284 295 299
245 247 248 249 249 250 253 255 259 261 263 264 266 267 271 268 275 277 277 280 273 286 287 289 290 290 291 286 292 295 292 286 286